[{"OBJECT_NAME":"BEIJING 1","OBJECT_ID":"2005-043A","EPOCH":"2026-09-12T07:39:25.142400","MEAN_MOTION":14.63575268,"ECCENTRICITY":0.00149908,"INCLINATION":98.3034,"RA_OF_ASC_NODE":29.0764,"ARG_OF_PERICENTER":14.2843,"MEAN_ANOMALY":345.878,"EPHEMERIS_TYPE":0,"CLASSIFICATION_TYPE":"U","NORAD_CAT_ID":28890,"ELEMENT_SET_NO":999,"REV_AT_EPOCH":11339,"BSTAR":0.000030889611,"MEAN_MOTION_DOT":0.00000111,"MEAN_MOTION_DDOT":0},{"OBJECT_NAME":"HUANJING 1A (HJ-1A)","OBJECT_ID":"2008-041A","EPOCH":"2026-09-12T06:39:12.183840","MEAN_MOTION":14.84156355,"ECCENTRICITY":0.00178283,"INCLINATION":97.6772,"RA_OF_ASC_NODE":237.7988,"ARG_OF_PERICENTER":208.8496,"MEAN_ANOMALY":151.1735,"EPHEMERIS_TYPE":0,"CLASSIFICATION_TYPE":"U","NORAD_CAT_ID":33320,"ELEMENT_SET_NO":999,"REV_AT_EPOCH":97132,"BSTAR":0.000050580983,"MEAN_MOTION_DOT":0.00000372,"MEAN_MOTION_DDOT":0},{"OBJECT_NAME":"HUANJING 1B (HJ-1B)","OBJECT_ID":"2008-041B","EPOCH":"2026-09-12T06:52:43.783968","MEAN_MOTION":14.83457707,"ECCENTRICITY":0.00345795,"INCLINATION":97.6603,"RA_OF_ASC_NODE":240.7115,"ARG_OF_PERICENTER":257.5629,"MEAN_ANOMALY":102.1715,"EPHEMERIS_TYPE":0,"CLASSIFICATION_TYPE":"U","NORAD_CAT_ID":33321,"ELEMENT_SET_NO":999,"REV_AT_EPOCH":97132,"BSTAR":0.000038738552,"MEAN_MOTION_DOT":0.00000269,"MEAN_MOTION_DDOT":0},{"OBJECT_NAME":"YAOGAN-4","OBJECT_ID":"2008-061A","EPOCH":"2026-09-11T18:50:42.846432","MEAN_MOTION":14.83337421,"ECCENTRICITY":0.0014968,"INCLINATION":97.9322,"RA_OF_ASC_NODE":187.6686,"ARG_OF_PERICENTER":143.6866,"MEAN_ANOMALY":216.5366,"EPHEMERIS_TYPE":0,"CLASSIFICATION_TYPE":"U","NORAD_CAT_ID":33446,"ELEMENT_SET_NO":999,"REV_AT_EPOCH":95850,"BSTAR":0.000085423,"MEAN_MOTION_DOT":0.00000647,"MEAN_MOTION_DDOT":0},{"OBJECT_NAME":"DEIMOS-1","OBJECT_ID":"2009-041A","EPOCH":"2026-09-12T06:34:25.644288","MEAN_MOTION":14.75312601,"ECCENTRICITY":0.00002636,"INCLINATION":97.7516,"RA_OF_ASC_NODE":48.7896,"ARG_OF_PERICENTER":60.7638,"MEAN_ANOMALY":299.3599,"EPHEMERIS_TYPE":0,"CLASSIFICATION_TYPE":"U","NORAD_CAT_ID":35681,"ELEMENT_SET_NO":999,"REV_AT_EPOCH":91972,"BSTAR":0.000068774059,"MEAN_MOTION_DOT":0.00000418,"MEAN_MOTION_DDOT":0},{"OBJECT_NAME":"UK-DMC 2","OBJECT_ID":"2009-041C","EPOCH":"2026-09-12T06:21:13.573152","MEAN_MOTION":14.76136974,"ECCENTRICITY":0.00013105,"INCLINATION":97.8954,"RA_OF_ASC_NODE":28.1661,"ARG_OF_PERICENTER":69.7097,"MEAN_ANOMALY":290.4254,"EPHEMERIS_TYPE":0,"CLASSIFICATION_TYPE":"U","NORAD_CAT_ID":35683,"ELEMENT_SET_NO":999,"REV_AT_EPOCH":91941,"BSTAR":0.000057745381,"MEAN_MOTION_DOT":0.00000349,"MEAN_MOTION_DDOT":0},{"OBJECT_NAME":"DMC3-FM1","OBJECT_ID":"2015-032A","EPOCH":"2026-09-12T06:48:58.787136","MEAN_MOTION":14.85813302,"ECCENTRICITY":0.00067485,"INCLINATION":97.6331,"RA_OF_ASC_NODE":116.9919,"ARG_OF_PERICENTER":117.0416,"MEAN_ANOMALY":243.149,"EPHEMERIS_TYPE":0,"CLASSIFICATION_TYPE":"U","NORAD_CAT_ID":40715,"ELEMENT_SET_NO":999,"REV_AT_EPOCH":60284,"BSTAR":-0.000034642243,"MEAN_MOTION_DOT":-0.00000352,"MEAN_MOTION_DDOT":0},{"OBJECT_NAME":"DMC3-FM2","OBJECT_ID":"2015-032B","EPOCH":"2026-09-12T07:20:08.444256","MEAN_MOTION":14.85822577,"ECCENTRICITY":0.00071404,"INCLINATION":97.638,"RA_OF_ASC_NODE":118.6446,"ARG_OF_PERICENTER":122.7373,"MEAN_ANOMALY":237.4532,"EPHEMERIS_TYPE":0,"CLASSIFICATION_TYPE":"U","NORAD_CAT_ID":40716,"ELEMENT_SET_NO":999,"REV_AT_EPOCH":60284,"BSTAR":0.0000240968,"MEAN_MOTION_DOT":0.00000158,"MEAN_MOTION_DDOT":0},{"OBJECT_NAME":"DMC3-FM3","OBJECT_ID":"2015-032C","EPOCH":"2026-09-12T06:17:41.899200","MEAN_MOTION":14.85813544,"ECCENTRICITY":0.00063764,"INCLINATION":97.6429,"RA_OF_ASC_NODE":120.4095,"ARG_OF_PERICENTER":120.9671,"MEAN_ANOMALY":239.2173,"EPHEMERIS_TYPE":0,"CLASSIFICATION_TYPE":"U","NORAD_CAT_ID":40717,"ELEMENT_SET_NO":999,"REV_AT_EPOCH":60284,"BSTAR":0.000090695902,"MEAN_MOTION_DOT":0.00000738,"MEAN_MOTION_DDOT":0}]